Location: Las Navas
(40.6024°N, 4.3345°W)
Time: 19:08:16
(UTC+00:00)

Daily predictions for brighter satellites

Satellite Brightness Start Highest point End
(mag) Time Altitude Azimuth Time Altitude Azimuth Time Altitude Azimuth
Cosmos 2173 Rocket 4.4 18:57:12 10° SSW 19:03:30 73° W 19:09:54 10° N
Cosmos 2322 Rocket 2.8 18:58:06 10° SSW 19:03:45 65° WNW 19:09:27 10° NNE
Cosmos 1459 Rocket 4.2 18:57:58 10° SSW 19:04:00 76° W 19:10:04 10° N
ACS3 Solar Sail 3.3 19:06:15 10° E 19:10:19 18° ENE 19:14:25 10° NNE
BlueWalker 3 4.3 19:09:39 10° NNW 19:11:42 14° NNE 19:13:45 10° NE
Helios 1A 3.2 19:07:49 10° NNE 19:11:43 43° E 19:15:35 10° S
Cosmos 2333 Rocket 2.5 19:05:59 10° SSW 19:11:44 76° WNW 19:17:32 10° NNE
TRACE 4.4 19:10:10 10° N 19:13:35 87° WNW 19:16:57 10° SSW
Cosmos 2219 Rocket 2.2 19:10:10 10° S 19:15:45 65° ESE 19:21:24 10° NNE
SAR-Lupe-2 3.5 19:12:21 10° SSE 19:15:53 68° ENE 19:19:27 10° N
ATLAS 3B R/B 3.1 19:11:17 10° NW 19:19:13 89° ENE 19:26:53 10° SSE
SL-08 R/B 3.4 19:14:20 10° NNE 19:19:16 74° ESE 19:24:10 10° S
Meteor 1-5 Rocket 4.2 19:13:49 10° S 19:19:19 69° E 19:25:03 10° NNE
SKYMED 3 4.4 19:16:23 10° NNE 19:20:29 65° ESE 19:24:34 10° S
BREEZE-M DEB (TANK) 3.1 19:19:57 10° W 19:22:09 35° NNW 19:24:12 10° NE
Cosmos 1626 1.4 19:20:45 10° N 19:23:46 83° E 19:26:45 10° S
SL-16 R/B 4.4 19:19:11 10° WSW 19:24:04 29° NW 19:28:58 10° N
CZ-4B R/B 3.3 19:22:58 10° SSE 19:27:41 78° ENE 19:32:28 10° N
SJ-6B 2.6 19:24:19 10° SSE 19:27:57 67° ENE 19:31:34 10° N
USA 229 DEB 4.2 19:20:59 10° NNW 19:28:24 58° NE 19:35:58 12° SE
USA 229 4.2 19:21:09 10° NNW 19:28:34 58° NE 19:36:04 12° SE
Cosmos 1766 Rocket 4.3 19:26:03 10° SSE 19:29:49 30° E 19:33:39 10° NNE
Cosmos 1725 Rocket 4.3 19:25:18 10° SSW 19:31:27 72° W 19:37:38 10° N
Timation 2 Rocket 4.0 19:26:34 10° NNW 19:32:52 70° ENE 19:39:25 10° SSE
Cosmos 1844 Rocket 3.9 19:30:57 10° NW 19:36:18 44° WSW 19:41:37 10° S
Cosmos 2322 3.8 19:31:10 10° S 19:36:37 51° ESE 19:42:04 10° NNE
YAOGAN 1 4.3 19:35:11 10° SSW 19:39:07 35° W 19:43:03 10° NNW
GEOS 3 Rocket 3.7 19:36:29 10° SE 19:41:44 84° SW 19:46:57 10° NW
Cosmos 1066 Rocket 4.5 19:37:39 10° N 19:43:23 52° ENE 19:49:02 10° SSE
Cosmos 1400 Rocket 3.2 19:40:47 10° N 19:44:23 37° ENE 19:46:24 21° SE
CZ-4 R/B 1.1 19:42:41 10° SSE 19:46:26 78° ENE 19:50:16 10° N
Cosmos 1726 1.3 19:44:16 10° S 19:47:05 90° SSE 19:49:54 10° N
Cosmos 1707 4.1 19:46:18 10° NNE 19:48:45 19° ENE 19:48:45 19° ENE
Cosmos 1536 4.0 19:55:08 22° ENE 19:55:08 22° ENE 19:57:33 10° NE
COSMOS 2428 2.7 19:50:04 10° S 19:55:39 60° ESE 20:01:17 10° NNE
Cosmos 1818 3.6 19:50:24 10° SSW 19:55:51 83° WNW 20:01:22 10° NNE
CSL-04 Debris 4.2 19:51:56 13° SSE 19:56:43 60° ENE 20:02:06 10° N
Cosmos 1937 Rocket 3.7 19:52:46 10° NNW 19:58:01 72° WSW 20:03:17 10° S
Lacrosse 4 Rocket 1.9 19:54:42 10° NNW 19:58:52 43° ENE 20:00:26 30° ESE
KORONAS-FOTON 4.3 19:55:54 10° N 19:59:19 34° ENE 19:59:47 33° E
Cosmos 2233 Rocket 4.4 19:54:30 10° SSW 20:00:33 63° W 20:06:40 10° N
ADEOS 4.4 19:57:10 10° S 20:02:13 51° W 20:07:18 10° NNW
Meteor 1-4 Rocket 3.7 20:01:09 10° NNE 20:02:20 19° NE 20:02:20 19° NE
Cosmos 1356 Rocket 4.3 19:59:52 10° NNE 20:03:33 29° ENE 20:03:50 29° E
Meteor 1-14 Rocket 4.2 19:58:20 10° S 20:03:46 59° E 20:09:12 10° NNE
Meteor 2-4 Rocket 4.4 19:59:11 10° NNW 20:05:02 61° W 20:10:47 10° S
Cosmos 1943 Rocket 3.7 20:01:22 10° N 20:05:12 19° NE 20:06:28 17° ENE
Cosmos 1743 3.6 20:02:00 10° SSW 20:05:27 45° W 20:08:54 10° N
Cosmos 1513 Rocket 4.4 19:59:48 10° S 20:05:41 57° E 20:11:37 10° NNE
PAYLOAD B 4.3 20:01:21 10° S 20:06:55 80° WSW 20:12:34 10° NNW
Cosmos 1674 2.2 20:04:13 10° N 20:07:33 69° E 20:08:24 45° SSE
Terra 3.7 20:09:10 14° ENE 20:09:10 14° ENE 20:11:13 10° NNE
Cosmos 1328 Rocket 3.4 20:04:32 10° N 20:08:49 69° E 20:11:04 27° SSE
Cosmos 1464 Rocket 4.2 20:03:19 10° SSE 20:09:15 46° E 20:15:16 10° NNE
USA 59 Rocket 1.1 20:07:11 10° NNW 20:10:48 32° NE 20:11:54 28° ENE
Meteor 1-11 Rocket 4.3 20:09:43 29° ESE 20:11:19 35° E 20:16:19 10° NNE
CZ-4B R/B 3.7 20:10:17 10° S 20:13:50 46° W 20:17:35 10° NNW
OAO 2 Rocket 4.2 20:12:33 10° WSW 20:17:00 35° SSW 20:18:23 29° SSE
ERS-1 Rocket 4.3 20:19:35 22° ENE 20:19:35 22° ENE 20:23:19 10° NNE
CZ-4B R/B 3.2 20:15:08 14° SSE 20:19:56 82° WSW 20:25:24 10° NNW
CARTOSAT-1 3.8 20:17:51 18° S 20:20:59 66° W 20:25:13 10° NNW
USA 290 4.2 20:18:17 10° N 20:19:44 19° NNE 20:19:44 19° NNE
Cosmos 2278 Rocket 2.9 20:16:33 10° N 20:21:47 36° ENE 20:22:58 33° E
USA 306 2.3 20:19:42 10° SW 20:22:46 75° NW 20:23:20 57° NNE
Iridium 4 Rocket 4.2 20:19:02 10° NNW 20:23:00 42° W 20:26:53 10° SSW
SPOT 5 3.3 20:24:19 38° ENE 20:24:33 38° ENE 20:28:49 10° N
NOSS 2-1 (C) 4.1 20:23:30 10° NNW 20:27:18 44° NE 20:27:52 42° ENE
Cosmos 2034 Rocket 4.3 20:26:34 37° ESE 20:28:04 43° E 20:33:51 10° NNE
TSX-5 3.7 20:26:38 10° NNW 20:29:08 52° N 20:29:08 52° N
Okean 3 Rocket 3.4 20:28:16 36° S 20:30:01 75° E 20:34:30 10° N
USA 186 3.5 20:30:42 21° SW 20:32:09 31° W 20:35:04 10° NNW
Cosmos 1072 Rocket 4.4 20:26:11 10° S 20:32:33 78° E 20:38:58 10° N
Okean O Rocket 1.5 20:31:48 48° SSE 20:33:00 89° E 20:37:28 10° NNW
NOSS 0 Rocket 3.8 20:29:53 10° SSW 20:36:06 77° ESE 20:42:22 10° NNE
Resurs 01 Rocket 2.7 20:34:29 16° SSW 20:37:48 43° W 20:42:02 10° NNW
MOS 1-B 4.4 20:34:42 24° S 20:38:20 76° WSW 20:44:08 10° NNW
USA 215 3.2 20:38:19 10° NE 20:44:46 59° SE 20:51:12 10° SSW
MOS 1 Rocket 3.8 20:45:58 46° ENE 20:45:58 46° ENE 20:50:31 10° N
ATLAS CENTAUR R/B 4.3 20:40:17 10° WNW 20:45:41 37° SW 20:50:57 18° S
Cosmos 2237 Rocket 2.1 20:46:17 55° SSE 20:47:12 63° ESE 20:52:46 10° NNE
Okean-O 2.6 20:49:38 70° NNE 20:49:38 70° NNE 20:53:42 10° N
BlueWalker 3 3.2 20:47:02 10° NW 20:49:46 34° N 20:49:46 34° N
Aureole 3 Rocket 4.2 20:47:44 34° SSE 20:51:11 62° E 20:57:06 10° NNE
ACS3 Solar Sail 1.9 20:50:27 32° S 20:53:37 78° W 21:00:03 10° NNW
Cosmos 1515 Rocket 3.6 20:50:36 10° N 20:54:36 74° NW 20:54:36 74° NW
Cosmos 44 Rocket 3.9 20:51:05 10° NW 20:55:35 45° WSW 20:56:16 42° SW
MetOp-B 3.9 20:59:07 76° ESE 20:59:21 78° ENE 21:04:44 10° N
NOSS 2-1 (E) 3.8 20:59:14 10° NW 21:02:59 75° NNW 21:02:59 75° NNW
NOSS 2-1 (D) 4.1 21:09:14 10° NW 21:12:41 61° WNW 21:12:41 61° WNW
IRS-1C Rocket 4.3 21:14:37 62° NNE 21:14:37 62° NNE 21:19:06 10° N
Cosmos 1980 3.8 21:10:16 10° SSW 21:15:54 71° WNW 21:21:36 10° NNE
USA 267 4.2 21:16:20 32° NE 21:17:54 36° NNE 21:23:45 10° NW
Spot 2 Rocket 4.5 21:21:59 38° NNE 21:21:59 38° NNE 21:25:15 10° N
Cosmos 2369 Rocket 4.2 21:19:04 10° N 21:21:39 16° NE 21:21:39 16° NE
USA 32 4.4 21:19:58 10° N 21:24:12 59° NNW 21:24:12 59° NNW
Lacrosse 4 Rocket 3.9 21:33:50 10° WNW 21:36:18 17° W 21:36:18 17° W
Terra 3.4 21:47:52 33° NNW 21:47:52 33° NNW 21:50:31 10° NNW
Cosmos 1943 Rocket 3.0 21:43:57 10° NNW 21:47:58 47° NW 21:47:58 47° NW
Cosmos 1092 Rocket 4.3 21:45:02 10° N 21:50:30 65° NW 21:50:30 65° NW
Ariane Rocket 4.4 21:54:54 33° NNW 21:54:54 33° NNW 21:57:40 10° NNW
ERS-1 Rocket 4.5 21:59:31 33° NW 21:59:31 33° NW 22:02:42 10° NNW
Cosmos 2026 Rocket 4.5 21:51:49 10° NNW 21:57:04 57° NW 21:57:04 57° NW
USA 59 Rocket 2.4 21:56:21 10° WNW 21:58:17 22° W 21:58:17 22° W
Cosmos 2278 Rocket 3.7 22:00:47 10° NW 22:04:48 30° W 22:04:48 30° W
USA 215 4.1 22:21:29 10° NE 22:27:38 45° NNW 22:33:46 10° W
Cosmos 2237 Rocket 4.4 22:27:45 10° W 22:31:43 20° NW 22:35:50 10° N
ACS3 Solar Sail 4.4 22:37:15 10° W 22:38:37 11° W 22:39:59 10° WNW
Cosmos 2369 Rocket 4.4 23:01:33 10° NNW 23:03:25 21° NNW 23:03:25 21° NNW
